IRNSS-1B

Last updated on Wed Oct 22 2025 00:02:48 GMT+0000 (Coordinated Universal Time)

1 39635U 14017A 25293.96017010 .00000090 00000+0 00000+0 0 9991 2 39635 28.9233 244.4955 0018884 190.4592 355.3954 1.00273302 42397
UTC large
Height (km)
Speed (km/s)
/
Latitude / Longitude
Inclination (degrees)
Orbital Period (minutes)
Azimuth
Elevation
Range (km)
Doppler Factor

Next 0 passes for location: London (51.5072 / 0.1276)

Sorry there are no passes over London.